Flag for Canada Weather past 2 weeks in Mount Pearl, Newfoundland and Labrador, Canada

45 °F


Feels Like: 40 °F
Forecast: 41 / 54 °F
Wind: 8 mph from Southeast

Location: St. John's

Current Time: Oct 7, 2015 at 5:50:07 PM

Latest Report: Oct 7, 2015 at 5:30 PM

Visibility: 2 mi

Pressure: 29.81 "Hg

Humidity: 93%

Dew point: 43 °F

Location of Mount PearlLocation

Historic Weather in Mount Pearl — Graph


Mount Pearl temperature yesterday

Maximum temperature yesterday: 63 °F (at 2:30 PM)
Minimum temperature yesterday: 45 °F (at 11:30 PM)
Average temperature yesterday: 52 °F

Past Weeks' High & Low Weather Summary

High73 °F (Sep 30, 1:30 PM)100% (Sep 24, 6:30 AM)30.33 "Hg (Sep 24, 6:30 AM)
Low36 °F (Sep 26, 9:30 PM)39% (Oct 6, 4:30 PM)29.79 "Hg (Oct 7, 5:30 AM)
Average51 °F80%30.13 "Hg
* Reported Sep 22 4:30 PM — Oct 7 4:30 PM, Mount Pearl, Weather by CustomWeather, © 2015

Note: Actual official high and low records may vary slightly from our data, if they occured in-between our weather recording intervals... More about our weather records


Mount Pearl weather history for previous 24 hours

Time TempWeatherWind HumidityBarometerVisibility
4:30 PM
Wed, Oct 7
50 °FLow clouds.9 mph88%29.80 "Hg8 mi
3:30 PM45 °FFog.9 mph100%29.80 "Hg5 mi
2:30 PM45 °FFog.6 mph100%29.82 "Hg1 mi
1:30 PM46 °FFog.7 mph100%29.82 "Hg1 mi
12:30 PM45 °FFog.10 mph100%29.83 "Hg0 mi
11:30 AM45 °FFog.9 mph100%29.83 "Hg1 mi
11:17 AM45 °FFog.8 mph100%29.83 "Hg1 mi
10:30 AM46 °FLow clouds.7 mph93%29.83 "Hg10 mi
9:30 AM46 °FLow clouds.8 mph100%29.82 "Hg15 mi
8:30 AM46 °FDrizzle. Fog.7 mph93%29.81 "Hg0 mi
7:30 AM46 °FDrizzle. Fog.7 mph100%29.80 "Hg0 mi
7:19 AM46 °FDrizzle. Fog.8 mph93%29.80 "Hg0 mi
6:30 AM46 °FFog.7 mph100%29.80 "Hg5 mi
5:30 AM46 °FFog.6 mph100%29.79 "Hg1 mi
4:30 AM46 °FDrizzle. Fog.6 mph100%29.80 "Hg1 mi
3:30 AM46 °FDrizzle. Dense fog.5 mph100%29.80 "Hg0 mi
2:30 AM46 °FFog.3 mph100%29.80 "Hg0 mi
1:30 AM46 °FFog.5 mph100%29.82 "Hg0 mi
12:30 AM46 °FFog.2 mph93%29.84 "Hg1 mi
12:21 AM46 °FFog.2 mph93%29.84 "Hg1 mi
11:30 PM
Tue, Oct 6
45 °FFog.2 mph100%29.85 "Hg4 mi
10:30 PM46 °FFog.2 mph93%29.88 "Hg1 mi
9:30 PM46 °FPassing clouds.6 mph87%29.88 "Hg15 mi
8:30 PM48 °FPassing clouds.2 mph76%29.88 "Hg15 mi
7:30 PM52 °FPassing clouds.5 mph72%29.89 "Hg15 mi
6:30 PM54 °FPassing clouds.3 mph72%29.90 "Hg15 mi
5:30 PM63 °FPassing clouds.2 mph42%29.90 "Hg15 mi
Weather by CustomWeather, © 2015

See weather overviewHow to use our weather pages